Hill Air Force Base, UT

6:45 PM MDT on August 24, 2016 (GMT -0600)
Hill Air Force Base

Weather History for KHIF - October, 2013

Change the Weather History Date:

Wednesday, October 16, 2013

  Actual Average Record
Temperature  
Mean Temperature 42 °F -  
Max Temperature 52 °F 59 °F 79 °F (2015)
Min Temperature 32 °F 39 °F 30 °F (1999)
Degree Days  
Heating Degree Days 23    
Moisture  
Dew Point 25 °F    
Average Humidity 51    
Maximum Humidity 67    
Minimum Humidity 37    
Precipitation  
Precipitation 0.00 in - - ()
Sea Level Pressure  
Sea Level Pressure 30.19 in    
Wind  
Wind Speed 10 mph (SE)    
Max Wind Speed 16 mph    
Max Gust Speed 21 mph    
Visibility 10 miles    
Events      
Averages and records for this station are not official NWS values.
T = Trace of Precipitation, MM = Missing Value Source: NWS Daily Summary

Daily Weather History Graph

Daily Weather History Graph

Search for Another Location

Airport or City:

Trip Planner

Search our weather history database for the weather conditions in past years. The results will help you decide how hot, cold, wet, or windy it might be!

Date:

Astronomy

Oct. 16, 2013 Rise Set
Actual Time 7:40 AM MDT 6:45 PM MDT
Civil Twilight 7:13 AM MDT 7:12 PM MDT
Nautical Twilight 6:41 AM MDT 7:44 PM MDT
Astronomical Twilight 6:09 AM MDT 8:16 PM MDT
Moon 5:27 PM MDT (10/16) 5:11 AM MDT (10/16)
Length of Visible Light 11h 59m
Length of Day
11h 04m
Waxing Gibbous, 94% of the Moon is Illuminated
Oct 16
Waxing Gibbous
Oct 18
Full
Oct 26
Last Quarter
Nov 3
New
Nov 9
First Quarter

Hourly Weather History & Observations

Time (MDT) Temp. Windchill Dew Point Humidity Pressure Visibility Wind Dir Wind Speed Gust Speed Precip Events Conditions
12:58 AM 37.9 °F 30.9 °F 23.4 °F 56% 30.19 in 10.0 mi ESE 10.4 mph - N/A   Clear
1:58 AM 36.1 °F 28.2 °F 22.8 °F 58% 30.20 in 10.0 mi ESE 11.5 mph 20.7 mph N/A   Clear
2:58 AM 35.4 °F 26.0 °F 22.8 °F 60% 30.19 in 10.0 mi ESE 15.0 mph - N/A   Clear
3:58 AM 34.5 °F 24.8 °F 22.8 °F 62% 30.19 in 10.0 mi ESE 15.0 mph - N/A   Clear
4:58 AM 34.3 °F 25.0 °F 22.5 °F 62% 30.20 in 10.0 mi ESE 13.8 mph - N/A   Clear
5:58 AM 33.4 °F 23.5 °F 22.6 °F 65% 30.21 in 10.0 mi ESE 15.0 mph - N/A   Clear
6:58 AM 32.2 °F 21.8 °F 22.3 °F 67% 30.22 in 10.0 mi ESE 15.0 mph - N/A   Clear
7:58 AM 32.2 °F 21.4 °F 22.1 °F 66% 30.23 in 10.0 mi ESE 16.1 mph - N/A   Clear
8:58 AM 34.2 °F 24.8 °F 22.8 °F 63% 30.25 in 10.0 mi ESE 13.8 mph - N/A   Clear
9:58 AM 38.3 °F 31.4 °F 24.4 °F 57% 30.25 in 10.0 mi ESE 10.4 mph - N/A   Clear
10:58 AM 43.0 °F 38.2 °F 26.8 °F 53% 30.24 in 10.0 mi ESE 8.1 mph - N/A   Clear
11:58 AM 48.0 °F - 27.7 °F 45% 30.22 in 10.0 mi Variable 4.6 mph - N/A   Clear
12:58 PM 49.6 °F - 27.7 °F 43% 30.21 in 10.0 mi Variable 3.5 mph - N/A   Clear
1:58 PM 52.0 °F - 29.1 °F 41% 30.19 in 10.0 mi SW 6.9 mph - N/A   Clear
2:58 PM 51.1 °F - 27.9 °F 41% 30.17 in 10.0 mi SW 3.5 mph - N/A   Clear
3:58 PM 52.0 °F - 26.6 °F 37% 30.17 in 10.0 mi WSW 5.8 mph - N/A   Partly Cloudy
4:58 PM 50.9 °F - 27.9 °F 41% 30.16 in 10.0 mi West 3.5 mph - N/A   Clear
5:58 PM 49.8 °F - 24.1 °F 37% 30.16 in 10.0 mi SW 4.6 mph - N/A   Partly Cloudy
6:58 PM 48.4 °F - 23.4 °F 37% 30.16 in 10.0 mi SE 2.3 mph - N/A   Clear
7:58 PM 46.9 °F - 24.4 °F 41% 30.17 in 10.0 mi East 2.3 mph - N/A   Partly Cloudy
8:58 PM 44.6 °F 43.1 °F 25.9 °F 48% 30.16 in 10.0 mi ESE 3.5 mph - N/A   Partly Cloudy
9:58 PM 44.6 °F 42.2 °F 23.2 °F 43% 30.14 in 10.0 mi East 4.6 mph - N/A   Clear
10:58 PM 41.9 °F 37.5 °F 25.2 °F 52% 30.14 in 10.0 mi ESE 6.9 mph - N/A   Clear
11:58 PM 42.1 °F 37.1 °F 24.4 °F 50% 30.11 in 10.0 mi ESE 8.1 mph - N/A   Clear